Regional Weather Roundup
Issued by NWS

Home | Current Version | Previous Version | Text Only | Print | Product List | Glossary On
Versions: 1 2 3 4 5 6 7 8 9 10 11 12 13 14 15 16 17 18 19 20 21 22 23 24 25 26 27 28 29 30 31 32 33 34 35 36 37 38 39 40 41 42 43 44 45 46 47 48 49 50
000
ASUS43 KLSX 311959
RWRMO

WEATHER SUMMARY FOR MISSOURI
NATIONAL WEATHER SERVICE SPRINGFIELD MO
300 PM CDT SUN AUG 31 2014

NOTE: "FAIR" INDICATES FEW OR NO CLOUDS BELOW 12,000 FEET WITH NO
       SIGNIFICANT WEATHER AND/OR OBSTRUCTIONS TO VISIBILITY.
       CURRENT SKY AND/OR WEATHER CONDITIONS ARE NOT AVAILABLE FOR
       CHILLICOTHE AND FARMINGTON.

MOZ001>031-035>038-043-044-053-054-312100-
...NORTHERN AND WESTERN MISSOURI...

CITY           SKY/WX    TMP DP  RH WIND       PRES   REMARKS
KANSAS CTY INT PTSUNNY   90  73  57 S14       29.80F HX  98
KANSAS C DTWN  MOSUNNY   94  70  45 S18G24    29.79F HX 100
LEE`S SUMMIT   PTSUNNY   91  65  41 S16G23    29.84F HX  93
ST JOSEPH      MOSUNNY   91  73  55 S18G26    29.77F HX  99
CHILLICOTHE      N/A     88  72  58 S9        29.84F HX  94
KIRKSVILLE     PTSUNNY   89  71  55 S13       29.88F HX  95

$$
MOZ066>068-077>081-088>096-101>105-312100-
...SOUTHWEST MISSOURI...

CITY           SKY/WX    TMP DP  RH WIND       PRES   REMARKS
SPRINGFIELD    MOSUNNY   91  65  41 S12       29.92F HX  93
JOPLIN         MOSUNNY   95  65  37 S15G23    29.89F HX  97

$$
MOZ032>034-039>042-045>050-055>058-069>072-312100-
...CENTRAL MISSOURI...

CITY           SKY/WX    TMP DP  RH WIND       PRES   REMARKS
COLUMBIA       MOSUNNY   93  62  35 S10       29.90F HX  93
JEFFERSON CITY SUNNY     91  64  40 S10       29.88F HX  92
ROLLA          MOSUNNY   89  63  41 SW9       29.92F HX  90
SEDALIA        SUNNY     95  64  35 S14       29.88F HX  97
OSAGE BEACH    SUNNY     91  63  38 SE8       29.90F HX  92

$$
MOZ051-052-059>065-312100-
...EAST CENTRAL MISSOURI...

CITY           SKY/WX    TMP DP  RH WIND       PRES   REMARKS
ST LOUIS INTL  PTSUNNY   92  68  45 SW3       29.92F HX  96
SPIRIT OF STL  MOSUNNY   88  67  49 CALM      29.90F HX  91
ST CHARLES     MOSUNNY   88  69  53 VRB7      29.89F HX  92

$$
MOZ072>076-082>087-097>100-106>115-312100-
...SOUTH CENTRAL AND SOUTHEAST MISSOURI...

CITY           SKY/WX    TMP DP  RH WIND       PRES   REMARKS
CAPE GIRARDEAU CLOUDY    82  72  71 S10       29.97F
FARMINGTON       N/A     72  66  83 E3        29.98
POPLAR BLUFF   MOSUNNY   86  70  58 S8        29.96F HX  90
WEST PLAINS    PTSUNNY   89  66  46 S12G24    29.98F HX  91

$$



USA.gov is the U.S. government's official web portal to all federal, state and local government web resources and services.